QPF
0.00 0.00 0.00 0.00 0.00 0.00 0.00 0.00 0.00 0.00 0.00 0.00 0.00 0.00 0.00 0.00 0.00 0.00 0.00 0.00 0.00 0.00 0.00 0.00 0.00 0.00 0.00 0.00 0.00 0.00 0.00 0.00 0.00 0.00 0.00 0.00 0.00 0.00 0.00 0.00 0.00 0.00 0.00 0.00 0.00
0.00 0.00 0.00 0.00 0.00 0.00 0.00 0.00 0.00 0.00 0.00 0.00 0.00 0.00 0.00 0.00 0.00 0.00 0.00 0.00 0.00 0.00 0.00 0.00 0.00 0.00 0.00 0.00 0.00 0.00 0.00 0.00 0.00 0.00 0.00 0.00 0.00 0.00 0.00 0.00 0.00 0.00 0.00 0.00 0.00
0.00 0.00 0.00 0.00 0.00 0.00 0.00 0.00 0.00 0.00 0.00 0.00 0.00 0.00 0.00 0.00 0.00 0.00 0.00 0.00 0.00 0.00 0.00 0.00 0.00 0.00 0.00 0.00 0.00 0.00 0.00 0.00 0.00 0.00 0.00 0.00 0.00 0.00 0.00 0.00 0.00 0.00 0.00 0.00 0.00
0.00 0.00 0.00 0.00 0.00 0.00 0.00 0.00 0.00 0.00 0.00 0.00 0.00 0.00 0.00 0.00 0.00 0.00 0.00 0.00 0.00 0.00 0.00 0.00 0.00 0.00 0.00 0.00 0.00 0.00 0.00 0.00 0.00 0.00 0.00 0.00 0.00 0.00 0.00 0.00 0.00 0.00 0.00 0.00 0.00
0.00 0.00 0.00 0.00 0.00 0.00 0.00 0.00 0.00 0.00 0.00 0.00 0.00 0.00 0.00 0.00 0.00 0.00 0.00 0.00 0.00 0.00 0.00 0.00 0.00 0.00 0.00 0.00 0.00 0.00 0.00 0.00 0.00 0.00 0.00 0.00 0.00 0.00 0.00 0.00 0.00 0.00 0.00 0.00 0.00
0.00 0.00 0.00 0.00 0.00 0.00 0.00 0.00 0.00 0.00 0.00 0.00 0.00 0.00 0.00 0.00 0.00 0.00 0.00 0.00 0.00 0.00 0.00 0.00 0.00 0.00 0.00 0.00 0.00 0.00 0.00 0.00 0.00 0.00 0.00 0.00 0.00 0.00 0.00 0.00 0.00 0.00 0.00 0.00 0.00
0.00 0.00 0.00 0.00 0.00 0.00 0.00 0.00 0.00 0.00 0.00 0.00 0.00 0.00 0.00 0.00 0.00 0.00 0.00 0.00 0.00 0.00 0.00 0.00 0.00 0.00 0.00 0.00 0.00 0.00 0.00 0.00 0.00 0.00 0.00 0.00 0.00 0.00 0.00 0.00 0.00 0.00 0.00 0.00 0.00
0.00 0.00 0.00 0.00 0.00 0.00 0.00 0.00 0.00 0.00 0.00 0.00 0.00 0.00 0.00 0.00 0.00 0.00 0.00 0.00 0.00 0.00 0.00 0.00 0.00 0.00 0.00 0.00 0.00 0.00 0.00 0.00 0.00 0.00 0.00 0.00 0.00 0.00 0.00 0.00 0.00 0.00 0.00 0.00 0.00
0.00 0.00 0.00 0.00 0.00 0.00 0.00 0.00 0.00 0.00 0.00 0.00 0.00 0.00 0.00 0.00 0.00 0.00 0.00 0.00 0.00 0.00 0.00 0.00 0.00 0.00 0.00 0.00 0.00 0.00 0.00 0.00 0.00 0.00 0.00 0.00 0.00 0.00 0.00 0.00 0.00 0.00 0.00 0.00 0.00
0.00 0.00 0.00 0.00 0.00 0.00 0.00 0.00 0.00 0.00 0.00 0.00 0.00 0.00 0.00 0.00 0.00 0.00 0.00 0.00 0.00 0.00 0.00 0.00 0.00 0.00 0.00 0.00 0.00 0.00 0.00 0.00 0.00 0.00 0.00 0.00 0.00 0.00 0.00 0.00 0.00 0.00 0.00 0.00 0.00
0.00 0.00 0.00 0.00 0.00 0.00 0.00 0.00 0.00 0.00 0.00 0.00 0.00 0.00 0.00 0.00 0.00 0.00 0.00 0.00 0.00 0.00 0.00 0.00 0.00 0.00 0.00 0.00 0.00 0.00 0.00 0.00 0.00 0.00 0.00 0.00 0.00 0.00 0.00 0.00 0.00 0.00 0.00 0.00 0.00
0.00 0.00 0.00 0.00 0.00 0.00 0.00 0.00 0.00 0.00 0.00 0.00 0.00 0.00 0.00 0.00 0.00 0.00 0.00 0.00 0.00 0.00 0.00 0.00 0.00 0.00 0.00 0.00 0.00 0.00 0.00 0.00 0.00 0.00 0.00 0.00 0.00 0.00 0.00 0.00 0.00 0.00 0.00 0.00 0.00
0.00 0.00 0.00 0.00 0.00 0.00 0.00 0.00 0.00 0.00 0.00 0.00 0.00 0.00 0.00 0.00 0.00 0.00 0.00 0.00 0.00 0.00 0.00 0.00 0.00 0.00 0.00 0.00 0.00 0.00 0.00 0.00 0.00 0.00 0.00 0.00 0.00 0.00 0.00 0.00 0.00 0.00 0.00 0.00 0.00
0.00 0.00 0.00 0.00 0.00 0.00 0.00 0.00 0.00 0.00 0.00 0.00 0.00 0.00 0.00 0.00 0.00 0.00 0.00 0.00 0.00 0.00 0.00 0.00 0.00 0.00 0.00 0.00 0.00 0.00 0.00 0.00 0.00 0.00 0.00 0.00 0.00 0.00 0.00 0.00 0.00 0.00 0.00 0.00 0.00
0.00 0.00 0.00 0.00 0.00 0.00 0.00 0.00 0.00 0.00 0.00 0.00 0.00 0.00 0.00 0.00 0.00 0.00 0.00 0.00 0.00 0.00 0.00 0.00 0.00 0.00 0.00 0.00 0.00 0.00 0.00 0.00 0.00 0.00 0.00 0.00 0.00 0.00 0.00 0.00 0.00 0.00 0.00 0.00 0.00
0.00 0.00 0.00 0.00 0.00 0.00 0.00 0.00 0.00 0.00 0.00 0.00 0.00 0.00 0.00 0.00 0.00 0.00 0.00 0.00 0.00 0.00 0.00 0.00 0.00 0.00 0.00 0.00 0.00 0.00 0.00 0.00 0.00 0.00 0.00 0.00 0.00 0.00 0.00 0.00 0.00 0.00 0.00 0.00 0.00
0.00 0.00 0.00 0.00 0.00 0.00 0.00 0.00 0.00 0.00 0.00 0.00 0.00 0.00 0.00 0.00 0.00 0.00 0.00 0.00 0.00 0.00 0.00 0.00 0.00 0.00 0.00 0.00 0.00 0.00 0.00 0.00 0.00 0.00 0.00 0.00 0.00 0.00 0.00 0.00 0.00 0.00 0.00 0.00 0.00
0.00 0.00 0.00 0.00 0.00 0.00 0.00 0.00 0.00 0.00 0.00 0.00 0.00 0.00 0.00 0.00 0.00 0.00 0.00 0.00 0.00 0.00 0.00 0.00 0.00 0.00 0.00 0.00 0.00 0.00 0.00 0.00 0.00 0.00 0.00 0.00 0.00 0.00 0.00 0.00 0.00 0.00 0.00 0.00 0.00
0.00 0.00 0.00 0.00 0.00 0.00 0.00 0.00 0.00 0.00 0.00 0.00 0.00 0.00 0.00 0.00 0.00 0.00 0.00 0.00 0.00 0.00 0.00 0.00 0.00 0.00 0.00 0.00 0.00 0.00 0.00 0.00 0.00 0.00 0.00 0.00 0.00 0.00 0.00 0.00 0.00 0.00 0.00 0.00 0.00
0.00 0.00 0.00 0.00 0.00 0.00 0.00 0.00 0.00 0.00 0.00 0.00 0.00 0.00 0.00 0.00 0.00 0.00 0.00 0.00 0.00 0.00 0.00 0.00 0.00 0.00 0.00 0.00 0.00 0.00 0.00 0.00 0.00 0.00 0.00 0.00 0.00 0.00 0.00 0.00 0.00 0.00 0.00 0.00 0.00
0.00 0.00 0.00 0.00 0.00 0.00 0.00 0.00 0.00 0.00 0.00 0.00 0.00 0.00 0.00 0.00 0.00 0.00 0.00 0.00 0.00 0.00 0.00 0.00 0.00 0.00 0.00 0.00 0.00 0.00 0.00 0.00 0.00 0.00 0.00 0.00 0.00 0.00 0.00 0.00 0.00 0.00 0.00 0.00 0.00
0.04 0.01 0.00 0.00 0.00 0.00 0.00 0.00 0.00 0.00 0.00 0.00 0.00 0.00 0.00 0.00 0.01 0.00 0.00 0.00 0.00 0.00 0.00 0.00 0.00 0.00 0.00 0.00 0.00 0.00 0.00 0.00 0.00 0.00 0.00 0.00 0.00 0.00 0.00 0.00 0.00 0.00 0.00 0.00 0.00
0.04 0.00 0.00 0.00 0.01 0.00 0.00 0.00 0.00 0.00 0.00 0.00 0.00 0.00 0.00 0.00 0.00 0.00 0.00 0.00 0.00 0.00 0.00 0.00 0.00 0.00 0.00 0.00 0.00 0.00 0.00 0.00 0.00 0.00 0.00 0.00 0.00 0.00 0.00 0.00 0.00 0.00 0.00 0.00 0.00
0.02 0.00 0.00 0.00 0.00 0.00 0.00 0.00 0.00 0.00 0.00 0.00 0.00 0.00 0.00 0.00 0.01 0.00 0.00 0.00 0.00 0.00 0.00 0.00 0.00 0.00 0.00 0.00 0.00 0.00 0.00 0.00 0.00 0.00 0.00 0.00 0.00 0.00 0.00 0.00 0.00 0.00 0.00 0.00 0.00
0.04 0.01 0.00 0.00 0.00 0.00 0.00 0.00 0.00 0.00 0.00 0.00 0.00 0.00 0.00 0.01 0.00 0.00 0.00 0.00 0.00 0.00 0.00 0.00 0.00 0.00 0.00 0.00 0.00 0.00 0.00 0.00 0.00 0.00 0.00 0.00 0.00 0.00 0.00 0.00 0.00 0.00 0.00 0.00 0.00
0.03 0.01 0.00 0.00 0.00 0.00 0.00 0.00 0.00 0.00 0.00 0.00 0.00 0.00 0.00 0.01 0.01 0.00 0.00 0.00 0.00 0.00 0.00 0.00 0.00 0.00 0.00 0.00 0.00 0.00 0.00 0.00 0.00 0.00 0.00 0.00 0.00 0.00 0.00 0.00 0.00 0.00 0.00 0.00 0.00
0.01 0.02 0.01 0.00 0.00 0.00 0.00 0.00 0.00 0.00 0.00 0.00 0.00 0.00 0.00 0.00 0.00 0.01 0.01 0.00 0.01 0.01 0.00 0.00 0.00 0.00 0.00 0.00 0.00 0.00 0.00 0.00 0.00 0.00 0.00 0.00 0.00 0.00 0.00 0.00 0.00 0.00 0.00 0.00 0.00
MSLP
1020.68 1020.37 1019.99 1019.64 1019.24 1018.86 1018.48 1018.06 1017.66 1017.31 1016.98 1016.73 1016.46 1016.24 1015.98 1015.65 1015.22 1015.28 1016.07 1016.20 1015.51 1014.88 1014.60 1014.35 1014.18 1014.23 1014.13 1014.79 1015.24 1015.77 1016.70 1017.29 1016.55 1016.26 1015.58 1015.31 1015.24 1014.89 1014.88 1015.10 1015.32 1015.56 1015.76 1015.80 1015.79
1020.79 1020.45 1020.09 1019.77 1019.44 1019.02 1018.57 1018.14 1017.79 1017.43 1017.05 1016.76 1016.51 1016.30 1016.06 1015.85 1015.68 1015.96 1016.26 1015.73 1015.30 1014.95 1014.83 1014.87 1014.81 1014.67 1014.98 1015.25 1015.64 1016.17 1016.92 1016.68 1016.11 1015.85 1015.72 1015.61 1015.63 1015.55 1015.56 1015.47 1015.49 1015.70 1015.90 1016.36 1016.59
1020.92 1020.56 1020.19 1019.79 1019.42 1019.08 1018.66 1018.27 1017.83 1017.44 1017.06 1016.76 1016.47 1016.35 1016.21 1016.02 1016.09 1016.38 1015.98 1015.59 1015.20 1015.02 1015.07 1015.07 1014.99 1014.89 1015.28 1015.44 1015.86 1016.22 1016.43 1016.39 1016.01 1015.73 1015.62 1015.67 1015.73 1015.57 1015.60 1015.61 1015.44 1015.52 1015.67 1016.08 1016.43
1021.21 1020.81 1020.42 1019.98 1019.52 1019.11 1018.71 1018.29 1017.88 1017.39 1016.99 1016.76 1016.53 1016.28 1015.95 1016.05 1016.89 1016.52 1015.91 1015.50 1015.08 1014.75 1014.96 1015.11 1015.08 1015.29 1015.79 1015.95 1015.92 1015.94 1015.97 1015.90 1015.67 1015.61 1015.68 1015.64 1015.59 1015.74 1015.74 1015.32 1015.24 1015.37 1015.36 1015.95 1016.24
1021.49 1021.10 1020.66 1020.21 1019.66 1019.11 1018.62 1018.14 1017.70 1017.26 1016.94 1016.71 1016.63 1016.39 1016.17 1016.31 1016.76 1016.38 1016.16 1015.75 1015.33 1015.01 1015.31 1015.39 1015.61 1015.93 1016.02 1016.01 1016.01 1016.12 1016.19 1016.07 1015.80 1015.85 1015.97 1015.90 1015.89 1015.90 1015.11 1014.73 1014.93 1015.13 1015.61 1015.99 1016.34
1021.49 1021.17 1020.74 1020.25 1019.68 1019.02 1018.45 1017.93 1017.45 1017.04 1016.76 1016.67 1016.46 1016.32 1016.57 1016.68 1016.75 1016.51 1016.39 1016.06 1016.01 1015.84 1015.92 1015.86 1015.99 1016.10 1016.39 1016.53 1016.52 1016.56 1016.39 1016.09 1015.97 1016.04 1016.08 1016.21 1016.12 1016.23 1015.10 1015.00 1015.01 1015.37 1015.76 1016.01 1016.54
1021.55 1021.20 1020.81 1020.26 1019.71 1018.99 1018.27 1017.66 1017.14 1016.82 1016.71 1016.58 1016.39 1016.28 1016.78 1017.06 1016.72 1016.55 1016.41 1016.19 1016.32 1016.28 1016.24 1016.21 1016.33 1016.47 1016.56 1016.60 1016.68 1016.72 1016.72 1016.37 1016.42 1016.18 1015.95 1015.91 1016.04 1015.82 1015.18 1015.41 1015.47 1015.79 1016.01 1016.28 1016.58
1021.62 1021.25 1020.82 1020.35 1019.70 1018.92 1018.16 1017.52 1017.10 1016.76 1016.72 1016.69 1016.48 1016.57 1016.98 1016.78 1016.72 1016.66 1016.67 1016.44 1016.27 1016.22 1016.39 1016.31 1016.11 1016.34 1016.77 1017.11 1017.27 1017.40 1017.42 1017.33 1016.53 1016.41 1016.52 1016.80 1016.30 1015.69 1015.57 1015.67 1015.93 1015.99 1016.12 1016.17 1016.16
1021.72 1021.42 1021.01 1020.48 1019.77 1018.95 1018.15 1017.45 1016.94 1016.78 1016.61 1016.53 1016.86 1016.67 1017.03 1016.67 1016.91 1017.00 1016.98 1016.91 1016.68 1016.43 1016.14 1016.12 1016.31 1016.99 1017.12 1017.59 1018.06 1018.34 1018.32 1018.04 1017.33 1017.01 1017.12 1017.01 1016.34 1015.60 1015.36 1015.62 1015.96 1016.13 1016.34 1016.45 1016.36
1021.73 1021.47 1021.18 1020.62 1019.98 1019.18 1018.13 1017.29 1016.99 1016.76 1016.67 1016.72 1017.14 1017.58 1017.38 1017.71 1017.57 1017.32 1016.97 1016.99 1016.93 1016.66 1016.71 1016.55 1017.06 1017.57 1018.10 1018.25 1019.02 1018.98 1018.93 1018.65 1018.25 1017.43 1016.99 1017.25 1015.95 1014.99 1015.03 1015.61 1015.65 1015.78 1015.71 1015.85 1016.14
1021.54 1021.32 1021.02 1020.79 1020.24 1019.58 1018.58 1017.57 1018.12 1017.99 1018.12 1018.33 1018.74 1018.88 1018.50 1018.12 1017.82 1017.24 1017.21 1017.14 1017.23 1017.05 1017.15 1017.51 1017.86 1018.10 1018.36 1018.43 1018.63 1018.91 1019.06 1019.05 1018.25 1018.03 1017.95 1017.39 1016.72 1014.55 1015.20 1015.21 1015.45 1015.95 1016.09 1016.02 1016.13
1021.55 1021.39 1021.20 1020.71 1020.33 1020.00 1019.78 1020.77 1021.76 1022.35 1020.56 1019.08 1018.72 1018.62 1018.41 1018.48 1018.14 1017.52 1017.20 1017.59 1017.67 1017.92 1017.79 1017.97 1018.14 1018.17 1018.21 1018.38 1018.78 1019.16 1019.37 1019.40 1018.93 1018.75 1018.90 1018.22 1016.94 1015.45 1015.16 1015.24 1015.57 1015.87 1016.00 1015.86 1015.62
1021.20 1021.35 1021.25 1020.93 1020.56 1020.66 1021.23 1021.84 1021.97 1021.97 1021.65 1019.34 1018.88 1018.52 1018.46 1018.55 1018.48 1018.19 1017.82 1018.04 1018.31 1018.37 1018.66 1018.65 1018.59 1018.37 1018.36 1018.58 1018.82 1019.29 1019.66 1019.89 1020.22 1019.74 1019.33 1019.23 1017.55 1015.94 1015.63 1015.45 1015.31 1015.28 1015.38 1015.17 1014.89
1020.79 1020.91 1021.14 1021.01 1021.17 1021.66 1021.59 1021.67 1021.82 1021.97 1021.72 1020.04 1019.25 1018.91 1018.74 1018.64 1018.54 1018.31 1018.27 1018.57 1018.53 1018.77 1018.77 1018.77 1018.59 1018.78 1018.96 1019.06 1019.35 1019.76 1019.79 1020.30 1020.82 1021.24 1021.29 1020.65 1019.55 1017.31 1016.62 1016.32 1016.03 1015.81 1015.76 1015.47 1014.75
1020.45 1020.43 1020.76 1020.98 1021.71 1021.84 1021.94 1021.89 1022.10 1022.33 1021.88 1020.02 1019.29 1019.22 1019.07 1019.27 1019.26 1018.70 1018.66 1018.43 1018.78 1019.07 1019.32 1019.15 1018.95 1018.93 1018.96 1019.22 1019.34 1019.81 1020.17 1020.91 1021.38 1022.25 1022.65 1022.07 1021.74 1017.89 1017.17 1016.71 1016.80 1016.54 1016.41 1016.05 1015.35
1020.16 1020.22 1020.34 1020.96 1021.44 1021.44 1021.59 1021.88 1022.31 1022.32 1020.75 1019.38 1018.78 1018.72 1018.97 1018.97 1018.95 1019.16 1019.08 1018.87 1019.09 1019.17 1019.35 1019.35 1019.16 1019.15 1019.05 1019.15 1019.46 1019.91 1020.56 1021.64 1022.66 1023.21 1023.17 1022.36 1021.92 1019.02 1017.83 1017.79 1017.49 1017.19 1016.91 1016.46 1016.09
1019.89 1019.80 1020.04 1020.27 1020.99 1021.35 1021.64 1022.04 1022.40 1021.85 1019.99 1019.46 1019.01 1018.68 1018.73 1018.79 1018.90 1019.26 1019.50 1019.57 1019.63 1019.66 1019.94 1019.68 1019.30 1019.09 1019.17 1019.57 1019.87 1020.18 1021.19 1022.74 1023.60 1024.18 1023.76 1022.77 1022.21 1018.71 1017.48 1017.39 1017.59 1017.60 1017.12 1016.75 1016.33
1019.87 1019.83 1019.57 1019.57 1020.48 1021.00 1021.66 1022.07 1021.85 1020.46 1019.82 1019.27 1019.28 1019.27 1019.39 1019.15 1019.24 1019.24 1019.37 1019.63 1019.61 1019.99 1020.78 1020.73 1019.86 1019.78 1019.69 1019.67 1020.06 1020.84 1021.46 1023.12 1024.42 1024.94 1023.98 1022.82 1021.16 1017.87 1017.18 1017.09 1017.38 1017.34 1017.44 1017.28 1016.84
1020.10 1020.37 1020.27 1019.98 1020.03 1020.73 1021.52 1021.11 1019.80 1019.52 1018.96 1019.08 1019.08 1019.40 1019.67 1019.49 1019.82 1019.62 1019.62 1019.47 1018.91 1019.26 1019.82 1020.23 1020.14 1019.84 1019.96 1020.11 1020.51 1021.67 1022.26 1022.90 1024.05 1024.83 1024.72 1022.22 1020.39 1017.66 1016.89 1016.92 1017.20 1017.23 1017.26 1017.32 1017.36
1020.03 1020.51 1020.71 1020.73 1020.39 1020.57 1020.68 1019.37 1018.66 1018.15 1018.14 1018.45 1018.98 1018.88 1019.45 1019.61 1019.81 1019.92 1019.61 1019.24 1019.11 1019.23 1019.13 1019.76 1020.02 1019.69 1020.05 1020.33 1020.92 1021.09 1021.78 1022.91 1024.14 1025.06 1024.44 1022.18 1020.71 1018.39 1017.10 1016.88 1016.96 1017.28 1017.55 1017.44 1017.53
1020.18 1020.65 1021.01 1020.85 1020.65 1020.60 1019.36 1018.66 1018.07 1017.31 1017.45 1018.31 1018.60 1018.89 1019.04 1019.16 1019.54 1019.89 1019.44 1019.51 1019.39 1019.63 1019.92 1020.14 1020.48 1020.63 1020.48 1020.69 1020.98 1021.97 1022.37 1022.90 1023.54 1024.18 1024.07 1022.55 1019.37 1017.45 1017.11 1016.94 1017.09 1017.15 1017.43 1017.57 1017.66
1019.92 1020.63 1020.76 1020.97 1020.91 1019.93 1018.99 1018.46 1017.89 1017.53 1017.63 1017.86 1017.97 1018.54 1018.99 1019.29 1018.99 1019.26 1019.12 1019.22 1018.98 1019.25 1020.10 1020.18 1020.89 1021.19 1020.61 1020.39 1020.71 1021.03 1021.57 1022.21 1023.21 1023.81 1023.53 1022.41 1018.65 1016.84 1016.70 1016.73 1016.96 1017.16 1017.17 1017.39 1017.78
1020.09 1020.31 1020.59 1021.08 1020.28 1019.82 1019.45 1018.85 1018.40 1018.11 1017.98 1017.99 1018.33 1018.29 1018.44 1019.01 1019.38 1018.93 1018.79 1018.74 1018.92 1019.32 1019.71 1020.26 1020.85 1021.20 1020.39 1020.18 1020.21 1020.66 1021.05 1021.22 1021.72 1022.64 1022.84 1021.72 1018.06 1016.57 1016.52 1016.88 1016.89 1017.22 1017.41 1017.25 1017.44
1020.28 1020.50 1020.73 1020.59 1020.41 1020.01 1019.61 1019.19 1019.06 1018.71 1018.35 1018.22 1018.37 1018.58 1018.98 1018.76 1019.00 1018.89 1019.12 1019.29 1019.33 1019.40 1019.68 1020.31 1020.80 1020.87 1020.83 1020.51 1020.34 1020.27 1019.77 1020.03 1020.83 1021.59 1020.90 1019.68 1017.52 1016.97 1016.70 1016.96 1017.00 1017.30 1017.25 1017.39 1017.52
1019.91 1019.37 1019.53 1020.28 1020.22 1019.99 1019.72 1019.07 1019.10 1019.13 1019.00 1018.77 1018.64 1018.54 1018.80 1019.14 1019.20 1019.12 1019.41 1019.57 1019.65 1019.91 1020.48 1020.86 1020.66 1020.92 1020.44 1020.86 1021.03 1020.34 1019.55 1019.43 1019.83 1019.36 1019.48 1017.57 1017.80 1016.61 1016.46 1016.90 1016.93 1016.84 1017.07 1017.22 1017.33
1020.21 1019.50 1019.58 1019.55 1019.42 1019.69 1019.36 1019.11 1019.07 1019.01 1019.33 1019.28 1018.97 1018.90 1019.00 1018.99 1019.13 1019.23 1019.56 1019.93 1020.01 1020.31 1020.61 1020.85 1020.62 1020.94 1020.45 1020.28 1020.80 1019.92 1019.53 1019.36 1018.53 1018.33 1018.24 1017.29 1016.51 1015.61 1016.24 1016.62 1016.96 1016.98 1017.12 1017.16 1017.09
1019.70 1019.33 1019.33 1018.78 1018.85 1019.12 1018.61 1018.18 1017.84 1018.40 1018.97 1019.18 1019.06 1019.17 1019.09 1018.55 1018.65 1018.96 1019.03 1019.62 1020.41 1020.83 1021.01 1021.06 1020.84 1021.24 1020.18 1020.15 1020.05 1019.09 1018.27 1018.16 1017.28 1016.87 1016.84 1017.26 1015.50 1015.39 1016.57 1017.00 1017.42 1017.42 1017.48 1017.41 1017.52
Thickness
5692 5694 5697 5700 5702 5705 5707 5711 5713 5715 5716 5717 5717 5716 5717 5718 5719 5717 5705 5704 5709 5712 5714 5714 5714 5711 5713 5705 5701 5692 5669 5660 5674 5668 5677 5681 5678 5685 5684 5678 5675 5672 5670 5669 5667
5689 5691 5693 5695 5698 5701 5704 5706 5709 5712 5713 5714 5714 5714 5715 5715 5715 5707 5706 5707 5709 5711 5711 5707 5705 5705 5699 5700 5693 5680 5661 5671 5679 5677 5676 5676 5672 5672 5670 5671 5670 5667 5665 5659 5655
5684 5687 5690 5692 5695 5697 5699 5702 5705 5707 5709 5711 5712 5711 5711 5712 5709 5703 5706 5707 5709 5710 5709 5707 5705 5705 5696 5696 5688 5679 5670 5675 5678 5678 5677 5672 5669 5672 5668 5664 5665 5666 5666 5661 5655
5679 5682 5685 5688 5691 5693 5696 5699 5701 5703 5706 5708 5709 5710 5711 5709 5698 5700 5704 5707 5708 5711 5708 5705 5702 5698 5686 5686 5685 5681 5682 5679 5679 5678 5675 5672 5673 5666 5661 5666 5670 5665 5666 5659 5656
5673 5677 5680 5683 5687 5691 5694 5697 5699 5701 5703 5705 5705 5707 5708 5701 5695 5700 5701 5703 5705 5706 5700 5699 5694 5689 5684 5683 5683 5678 5676 5675 5676 5671 5667 5667 5662 5662 5665 5670 5668 5666 5659 5654 5650
5669 5672 5676 5680 5684 5688 5692 5696 5699 5702 5703 5703 5704 5704 5701 5696 5697 5698 5699 5700 5698 5697 5694 5692 5689 5686 5679 5677 5676 5672 5671 5669 5669 5667 5665 5661 5659 5658 5666 5665 5664 5658 5653 5649 5643
5665 5669 5671 5676 5680 5685 5690 5695 5699 5701 5701 5701 5701 5702 5694 5690 5695 5695 5696 5696 5694 5692 5690 5689 5685 5682 5678 5676 5672 5670 5665 5662 5661 5662 5664 5663 5656 5649 5659 5653 5651 5648 5644 5641 5637
5661 5664 5667 5671 5675 5682 5688 5693 5696 5699 5698 5697 5698 5697 5686 5692 5693 5692 5690 5690 5691 5691 5687 5686 5686 5679 5674 5670 5660 5657 5652 5644 5661 5656 5654 5649 5640 5649 5648 5647 5644 5642 5638 5636 5636
5655 5657 5661 5664 5670 5677 5683 5688 5693 5693 5695 5695 5692 5692 5682 5689 5685 5686 5685 5683 5682 5685 5687 5685 5680 5668 5664 5653 5640 5638 5634 5639 5641 5646 5643 5642 5640 5648 5647 5644 5641 5635 5631 5630 5629
5648 5651 5653 5658 5663 5669 5678 5685 5686 5688 5689 5688 5684 5680 5678 5673 5676 5678 5680 5679 5677 5678 5675 5674 5661 5654 5645 5641 5622 5636 5633 5631 5628 5641 5639 5631 5640 5651 5646 5638 5637 5633 5630 5626 5623
5642 5643 5647 5650 5655 5660 5669 5676 5668 5673 5669 5667 5663 5660 5664 5667 5669 5675 5672 5670 5668 5667 5663 5658 5651 5647 5648 5644 5640 5635 5628 5623 5627 5631 5627 5627 5629 5650 5640 5633 5628 5620 5617 5615 5612
5634 5635 5637 5641 5645 5648 5653 5642 5635 5631 5643 5656 5660 5660 5661 5660 5661 5667 5667 5663 5658 5651 5653 5646 5645 5646 5645 5641 5634 5627 5621 5614 5618 5620 5617 5615 5622 5634 5630 5629 5624 5617 5610 5607 5609
5631 5628 5629 5631 5635 5635 5632 5628 5628 5629 5628 5653 5654 5656 5656 5655 5653 5655 5657 5651 5645 5644 5635 5637 5639 5638 5636 5631 5627 5618 5615 5611 5607 5607 5607 5596 5610 5627 5623 5618 5618 5616 5608 5605 5606
5628 5625 5623 5624 5622 5618 5621 5621 5621 5620 5610 5637 5645 5647 5647 5645 5649 5647 5645 5642 5638 5634 5630 5628 5629 5626 5621 5618 5613 5609 5609 5605 5597 5581 5577 5585 5582 5606 5606 5604 5605 5599 5593 5591 5595
5621 5622 5620 5618 5611 5611 5611 5611 5610 5607 5595 5627 5633 5633 5633 5632 5631 5637 5635 5636 5630 5626 5624 5626 5621 5618 5614 5611 5608 5600 5600 5593 5588 5562 5552 5567 5528 5590 5593 5602 5593 5587 5583 5579 5581
5613 5615 5615 5611 5608 5607 5604 5603 5601 5593 5592 5620 5627 5627 5624 5622 5624 5620 5621 5622 5619 5617 5612 5610 5609 5608 5607 5603 5598 5593 5588 5567 5542 5534 5521 5562 5547 5579 5587 5585 5575 5575 5571 5571 5570
5605 5607 5608 5606 5603 5598 5596 5593 5581 5575 5614 5615 5614 5618 5616 5616 5615 5608 5605 5603 5603 5598 5603 5602 5603 5601 5597 5590 5586 5581 5571 5538 5532 5505 5545 5548 5532 5572 5581 5576 5572 5563 5562 5559 5558
5592 5596 5602 5603 5594 5591 5586 5582 5571 5590 5595 5606 5603 5601 5599 5602 5600 5598 5595 5590 5593 5590 5564 5563 5575 5583 5583 5582 5577 5568 5564 5527 5514 5504 5524 5530 5536 5574 5572 5572 5564 5557 5550 5548 5547
5575 5578 5584 5589 5590 5583 5580 5572 5580 5586 5600 5595 5593 5585 5585 5588 5585 5585 5583 5583 5594 5584 5579 5562 5568 5573 5570 5567 5566 5551 5534 5536 5523 5508 5469 5522 5533 5560 5565 5565 5559 5550 5543 5539 5535
5565 5562 5565 5566 5572 5571 5573 5582 5585 5594 5594 5590 5584 5584 5573 5576 5576 5572 5572 5577 5579 5572 5578 5572 5563 5567 5562 5559 5549 5550 5536 5512 5496 5487 5490 5509 5516 5540 5561 5558 5553 5545 5533 5529 5526
5552 5552 5547 5550 5553 5554 5567 5574 5579 5588 5588 5576 5575 5570 5569 5569 5562 5557 5566 5565 5563 5560 5555 5551 5548 5548 5547 5540 5534 5521 5515 5506 5496 5483 5464 5461 5521 5533 5545 5546 5539 5531 5526 5520 5514
5537 5535 5536 5535 5540 5547 5558 5559 5568 5570 5569 5568 5567 5561 5555 5552 5559 5558 5557 5553 5553 5548 5542 5539 5516 5515 5525 5530 5525 5521 5508 5500 5504 5480 5450 5450 5497 5542 5531 5529 5522 5516 5516 5512 5503
5517 5520 5517 5515 5530 5533 5531 5541 5545 5550 5551 5549 5545 5548 5551 5546 5536 5545 5544 5545 5539 5538 5531 5524 5504 5507 5517 5516 5511 5508 5497 5494 5484 5477 5463 5453 5512 5524 5519 5514 5507 5502 5498 5498 5495
5498 5498 5500 5498 5500 5516 5522 5524 5530 5524 5531 5531 5531 5528 5525 5527 5527 5526 5521 5523 5520 5519 5518 5511 5494 5498 5521 5514 5495 5491 5490 5484 5491 5461 5491 5489 5518 5518 5514 5497 5494 5491 5486 5483 5481
5479 5489 5491 5487 5489 5495 5498 5509 5511 5510 5503 5507 5508 5516 5512 5505 5505 5505 5502 5501 5503 5503 5489 5480 5483 5475 5483 5479 5477 5485 5493 5481 5469 5482 5469 5513 5480 5508 5506 5488 5483 5482 5479 5473 5471
5460 5468 5466 5469 5476 5475 5482 5490 5491 5494 5485 5482 5482 5488 5483 5486 5491 5484 5483 5477 5475 5474 5470 5464 5469 5456 5460 5466 5461 5467 5474 5467 5478 5477 5468 5480 5479 5504 5491 5481 5468 5467 5466 5464 5466
5442 5448 5443 5456 5457 5456 5471 5479 5485 5480 5468 5471 5471 5465 5461 5472 5470 5469 5470 5468 5462 5451 5451 5448 5449 5440 5459 5450 5447 5451 5468 5462 5470 5478 5474 5459 5485 5491 5468 5460 5456 5448 5451 5454 5450